Find Starlink 35005

NORAD ID: 65456 Int'l Des: 2025-194 Owner: SPXS Country: US Constellation: starlink operational
LEOCIRCULARRETROGRADESSO

实时位置

正在加载3D地球...

关于 Starlink 35005

正在加载描述...

即将过境

Passes for default location (London). Set your location on the main map for personalized predictions.

高度历史

Loading altitude history...

两行轨道根数

1 65456U 25194Y 26104.85291375 -.00004358 00000-0 -29808-3 0 9992
2 65456 97.6013 320.1022 0002122 74.5084 285.6377 15.05635603 35098
Epoch: Apr 14, 2026 • Age: 13 hours

当前状态

高度 570.1 km
速度 7.57 km/s
星下点 -50.59°S, 8.68°W
发射日期 Sep 3, 2025
运行时间 0.6 years
类型 internet

技术详情

分类 Payload
质量 575.00 kg
干质量 530.00 kg
总质量 575.00 kg
长度 0.30 m
直径 4.10 m
跨度 29.00 m
形状 Box + pan
制造商 SPXS
平台类型 Starlink V2MO
阶段状态 In Orbit
所有者/国家 SPXS/US

Most Searched